Вернуться в каталог

THOR ABLESTAR DEB

АктивенPO
NORAD 2432·DEBRIS·🇺🇸 United States

Запущен Dec 5, 1963 с Vandenberg Space Force Base

Loading…

Ближайшие Пролёты (ближайшие 24 часа)

TLE

СвежийSource: Space-Track

Эпоха: Sep 14, 2026, 11:14 UTC

1 02432U 63049G   26257.46859605  .00000055  00000-0  72919-4 0  9990
2 02432  89.9180  69.9283 0033624 340.6929  47.4723 13.48269848 84738

Отслеживайте THOR ABLESTAR DEB в реальном времени с AllMySat

Download on the App Store